QPF
0.00 0.00 0.00 0.01 0.01 0.01 0.01 0.01 0.00 0.00 0.00 0.00 0.00 0.00 0.00 0.00 0.00 0.01 0.01 0.01 0.01 0.01 0.00 0.01 0.01 0.01 0.01 0.02 0.02 0.03 0.03 0.03 0.04 0.06 0.07 0.07 0.07 0.06 0.03 0.03 0.03 0.03 0.03 0.04
0.00 0.00 0.00 0.00 0.00 0.01 0.01 0.00 0.00 0.00 0.00 0.00 0.00 0.00 0.01 0.01 0.01 0.01 0.01 0.01 0.01 0.01 0.01 0.01 0.01 0.01 0.01 0.01 0.01 0.02 0.03 0.04 0.03 0.05 0.07 0.08 0.05 0.04 0.04 0.03 0.04 0.03 0.02 0.02
0.00 0.00 0.00 0.00 0.00 0.01 0.00 0.00 0.01 0.01 0.00 0.00 0.00 0.01 0.02 0.02 0.01 0.00 0.00 0.00 0.00 0.00 0.00 0.01 0.01 0.00 0.00 0.01 0.01 0.02 0.03 0.04 0.03 0.05 0.05 0.06 0.05 0.05 0.08 0.09 0.09 0.06 0.04 0.03
0.00 0.00 0.00 0.00 0.00 0.00 0.00 0.00 0.02 0.02 0.01 0.01 0.02 0.06 0.05 0.05 0.02 0.01 0.00 0.00 0.00 0.00 0.00 0.01 0.01 0.01 0.02 0.01 0.01 0.01 0.03 0.05 0.05 0.05 0.06 0.07 0.08 0.08 0.11 0.12 0.11 0.07 0.06 0.04
0.00 0.00 0.00 0.00 0.00 0.00 0.00 0.00 0.00 0.01 0.01 0.02 0.02 0.04 0.06 0.07 0.05 0.01 0.00 0.00 0.00 0.00 0.00 0.01 0.00 0.00 0.01 0.01 0.01 0.01 0.02 0.04 0.04 0.05 0.05 0.05 0.08 0.09 0.09 0.10 0.11 0.10 0.09 0.08
0.00 0.00 0.00 0.00 0.00 0.00 0.00 0.00 0.00 0.00 0.01 0.03 0.04 0.04 0.05 0.08 0.05 0.01 0.00 0.00 0.00 0.00 0.00 0.00 0.00 0.00 0.00 0.00 0.01 0.01 0.01 0.02 0.02 0.02 0.04 0.06 0.07 0.09 0.11 0.10 0.10 0.10 0.10 0.10
0.00 0.00 0.00 0.00 0.00 0.00 0.00 0.00 0.01 0.01 0.03 0.04 0.05 0.04 0.03 0.03 0.02 0.01 0.00 0.00 0.00 0.00 0.00 0.00 0.00 0.00 0.00 0.00 0.01 0.01 0.01 0.02 0.02 0.02 0.03 0.04 0.06 0.07 0.08 0.07 0.07 0.08 0.09 0.10
0.00 0.00 0.00 0.00 0.00 0.00 0.00 0.00 0.02 0.03 0.04 0.02 0.02 0.02 0.02 0.02 0.02 0.02 0.00 0.00 0.00 0.00 0.00 0.00 0.00 0.00 0.00 0.00 0.01 0.01 0.01 0.02 0.03 0.04 0.05 0.04 0.04 0.05 0.06 0.08 0.07 0.08 0.07 0.08
0.00 0.00 0.00 0.00 0.00 0.00 0.00 0.00 0.00 0.01 0.03 0.03 0.02 0.02 0.01 0.00 0.01 0.01 0.01 0.00 0.00 0.00 0.00 0.00 0.00 0.00 0.01 0.01 0.01 0.00 0.01 0.02 0.02 0.04 0.05 0.04 0.04 0.06 0.07 0.08 0.06 0.06 0.08 0.08
0.00 0.00 0.00 0.00 0.00 0.00 0.00 0.00 0.00 0.00 0.03 0.03 0.04 0.02 0.02 0.01 0.00 0.00 0.00 0.00 0.00 0.00 0.00 0.00 0.00 0.00 0.01 0.01 0.01 0.01 0.01 0.01 0.01 0.02 0.04 0.04 0.05 0.05 0.06 0.08 0.08 0.08 0.09 0.08
0.00 0.00 0.00 0.00 0.00 0.00 0.00 0.00 0.00 0.00 0.01 0.03 0.03 0.04 0.03 0.01 0.00 0.00 0.00 0.00 0.00 0.00 0.00 0.00 0.00 0.00 0.00 0.01 0.01 0.01 0.01 0.01 0.01 0.01 0.02 0.03 0.03 0.04 0.04 0.05 0.04 0.06 0.07 0.07
0.00 0.00 0.00 0.00 0.00 0.00 0.00 0.00 0.00 0.00 0.00 0.01 0.02 0.04 0.03 0.02 0.00 0.00 0.00 0.00 0.00 0.00 0.00 0.00 0.00 0.00 0.00 0.00 0.01 0.01 0.01 0.01 0.01 0.01 0.02 0.03 0.03 0.03 0.04 0.05 0.05 0.05 0.06 0.06
0.00 0.00 0.00 0.00 0.00 0.00 0.00 0.00 0.00 0.00 0.00 0.00 0.01 0.05 0.02 0.01 0.00 0.00 0.00 0.00 0.00 0.00 0.00 0.01 0.01 0.01 0.00 0.01 0.01 0.01 0.02 0.03 0.03 0.03 0.04 0.03 0.02 0.02 0.03 0.05 0.07 0.08 0.08 0.07
0.00 0.00 0.00 0.00 0.00 0.00 0.00 0.00 0.00 0.00 0.00 0.00 0.01 0.04 0.03 0.01 0.01 0.02 0.00 0.00 0.00 0.00 0.00 0.01 0.01 0.00 0.00 0.01 0.01 0.02 0.03 0.05 0.06 0.07 0.06 0.04 0.03 0.03 0.04 0.07 0.08 0.09 0.09 0.08
0.00 0.00 0.00 0.01 0.01 0.00 0.00 0.00 0.00 0.00 0.00 0.00 0.01 0.03 0.03 0.02 0.01 0.03 0.01 0.01 0.00 0.00 0.00 0.00 0.00 0.00 0.01 0.01 0.02 0.02 0.03 0.05 0.06 0.09 0.11 0.09 0.06 0.06 0.06 0.07 0.07 0.06 0.06 0.07
0.00 0.00 0.00 0.00 0.01 0.01 0.00 0.00 0.00 0.00 0.00 0.00 0.00 0.00 0.01 0.01 0.01 0.01 0.01 0.01 0.01 0.00 0.00 0.00 0.00 0.01 0.01 0.01 0.01 0.01 0.02 0.04 0.05 0.06 0.09 0.10 0.07 0.06 0.05 0.05 0.06 0.06 0.07 0.07
0.00 0.00 0.00 0.01 0.02 0.01 0.00 0.00 0.00 0.00 0.00 0.00 0.01 0.01 0.00 0.01 0.00 0.00 0.00 0.00 0.01 0.01 0.00 0.00 0.01 0.01 0.01 0.01 0.01 0.01 0.01 0.02 0.03 0.04 0.06 0.07 0.06 0.05 0.06 0.05 0.04 0.05 0.05 0.05
0.00 0.00 0.00 0.01 0.02 0.02 0.01 0.00 0.00 0.00 0.00 0.01 0.01 0.02 0.01 0.01 0.00 0.00 0.00 0.00 0.00 0.00 0.00 0.01 0.01 0.01 0.01 0.02 0.02 0.01 0.01 0.01 0.03 0.03 0.04 0.06 0.06 0.05 0.06 0.06 0.05 0.05 0.05 0.05
0.00 0.00 0.00 0.01 0.01 0.02 0.01 0.00 0.00 0.01 0.01 0.00 0.01 0.01 0.01 0.00 0.01 0.01 0.01 0.01 0.01 0.01 0.00 0.00 0.01 0.01 0.01 0.02 0.02 0.01 0.01 0.03 0.04 0.05 0.06 0.06 0.05 0.06 0.07 0.06 0.05 0.05 0.06 0.07
0.00 0.00 0.00 0.00 0.02 0.03 0.03 0.01 0.00 0.01 0.01 0.00 0.00 0.00 0.00 0.01 0.02 0.04 0.02 0.02 0.02 0.01 0.00 0.00 0.00 0.01 0.02 0.02 0.02 0.02 0.01 0.02 0.03 0.05 0.06 0.05 0.05 0.06 0.06 0.06 0.06 0.07 0.07 0.06
0.00 0.00 0.00 0.01 0.01 0.04 0.02 0.01 0.01 0.01 0.02 0.00 0.00 0.01 0.01 0.02 0.03 0.03 0.01 0.02 0.02 0.01 0.01 0.00 0.00 0.01 0.04 0.06 0.04 0.03 0.03 0.04 0.03 0.05 0.06 0.05 0.03 0.05 0.05 0.05 0.06 0.07 0.08 0.08
0.00 0.00 0.00 0.00 0.02 0.04 0.03 0.02 0.02 0.03 0.01 0.00 0.01 0.01 0.01 0.01 0.01 0.01 0.01 0.01 0.02 0.02 0.01 0.00 0.00 0.01 0.03 0.05 0.04 0.03 0.03 0.05 0.06 0.05 0.04 0.03 0.03 0.02 0.02 0.03 0.05 0.07 0.09 0.10
0.00 0.01 0.01 0.01 0.02 0.03 0.06 0.06 0.03 0.01 0.00 0.01 0.01 0.01 0.01 0.01 0.01 0.01 0.01 0.02 0.03 0.02 0.01 0.01 0.01 0.02 0.02 0.02 0.02 0.03 0.03 0.03 0.05 0.04 0.04 0.03 0.02 0.03 0.03 0.02 0.03 0.03 0.04 0.05
0.01 0.00 0.01 0.02 0.02 0.01 0.05 0.05 0.03 0.01 0.01 0.01 0.01 0.01 0.00 0.00 0.01 0.01 0.02 0.04 0.03 0.03 0.03 0.03 0.04 0.03 0.02 0.02 0.03 0.04 0.05 0.05 0.05 0.04 0.04 0.03 0.03 0.03 0.04 0.04 0.04 0.05 0.04 0.04
0.02 0.01 0.02 0.04 0.03 0.01 0.01 0.01 0.02 0.00 0.00 0.00 0.01 0.00 0.00 0.01 0.01 0.01 0.02 0.05 0.04 0.03 0.02 0.03 0.03 0.03 0.03 0.03 0.03 0.03 0.04 0.05 0.05 0.05 0.05 0.04 0.04 0.04 0.05 0.05 0.05 0.05 0.04 0.04
0.02 0.03 0.04 0.05 0.04 0.04 0.02 0.01 0.01 0.00 0.00 0.00 0.00 0.00 0.01 0.01 0.01 0.02 0.02 0.03 0.03 0.03 0.02 0.02 0.02 0.02 0.02 0.03 0.03 0.03 0.03 0.05 0.08 0.11 0.12 0.10 0.06 0.05 0.05 0.05 0.07 0.09 0.07 0.05
MSLP
1007.44 1008.90 1010.26 1011.43 1012.33 1012.96 1013.34 1013.52 1013.59 1013.62 1013.68 1013.80 1014.00 1014.26 1014.55 1014.82 1015.02 1015.15 1015.17 1015.10 1014.96 1014.78 1014.59 1014.42 1014.30 1014.25 1014.27 1014.36 1014.51 1014.73 1015.00 1015.31 1015.66 1016.04 1016.43 1016.80 1017.13 1017.41 1017.60 1017.70 1017.72 1017.66 1017.54 1017.40
1008.37 1009.72 1010.98 1012.04 1012.88 1013.49 1013.91 1014.18 1014.37 1014.54 1014.74 1014.97 1015.25 1015.54 1015.81 1016.03 1016.19 1016.26 1016.25 1016.18 1016.07 1015.93 1015.80 1015.67 1015.57 1015.50 1015.45 1015.44 1015.48 1015.58 1015.74 1015.98 1016.29 1016.66 1017.06 1017.46 1017.81 1018.09 1018.27 1018.34 1018.30 1018.19 1018.03 1017.86
1008.95 1010.12 1011.20 1012.15 1012.94 1013.58 1014.10 1014.55 1014.96 1015.37 1015.77 1016.17 1016.55 1016.86 1017.11 1017.25 1017.31 1017.31 1017.25 1017.17 1017.10 1017.04 1016.99 1016.96 1016.93 1016.88 1016.81 1016.74 1016.67 1016.64 1016.68 1016.80 1017.02 1017.33 1017.69 1018.08 1018.43 1018.70 1018.85 1018.90 1018.83 1018.68 1018.49 1018.31
1009.13 1010.06 1010.94 1011.76 1012.52 1013.24 1013.94 1014.64 1015.35 1016.05 1016.72 1017.32 1017.80 1018.13 1018.32 1018.35 1018.28 1018.14 1018.00 1017.89 1017.85 1017.88 1017.97 1018.07 1018.16 1018.19 1018.16 1018.06 1017.92 1017.78 1017.69 1017.68 1017.79 1018.00 1018.30 1018.63 1018.95 1019.21 1019.35 1019.38 1019.29 1019.13 1018.93 1018.74
1008.97 1009.64 1010.32 1011.02 1011.77 1012.59 1013.50 1014.50 1015.54 1016.58 1017.53 1018.33 1018.91 1019.25 1019.34 1019.22 1018.97 1018.68 1018.42 1018.26 1018.24 1018.36 1018.59 1018.86 1019.10 1019.27 1019.32 1019.25 1019.09 1018.88 1018.68 1018.55 1018.54 1018.65 1018.86 1019.13 1019.41 1019.64 1019.78 1019.80 1019.72 1019.56 1019.36 1019.18
1008.59 1009.01 1009.48 1010.08 1010.83 1011.77 1012.90 1014.19 1015.57 1016.92 1018.14 1019.13 1019.79 1020.11 1020.10 1019.81 1019.37 1018.90 1018.50 1018.28 1018.27 1018.47 1018.83 1019.28 1019.71 1020.05 1020.23 1020.23 1020.09 1019.85 1019.58 1019.36 1019.24 1019.25 1019.37 1019.58 1019.83 1020.04 1020.18 1020.21 1020.14 1020.00 1019.82 1019.65
1008.13 1008.32 1008.63 1009.13 1009.88 1010.93 1012.25 1013.79 1015.45 1017.07 1018.52 1019.65 1020.38 1020.68 1020.56 1020.12 1019.50 1018.85 1018.33 1018.03 1018.02 1018.29 1018.79 1019.40 1020.02 1020.53 1020.86 1020.97 1020.89 1020.65 1020.36 1020.07 1019.88 1019.81 1019.87 1020.02 1020.23 1020.43 1020.58 1020.63 1020.59 1020.48 1020.32 1020.17
1007.70 1007.72 1007.90 1008.32 1009.07 1010.18 1011.63 1013.35 1015.20 1017.01 1018.61 1019.85 1020.63 1020.90 1020.71 1020.15 1019.40 1018.64 1018.02 1017.67 1017.67 1018.00 1018.60 1019.35 1020.13 1020.79 1021.27 1021.50 1021.49 1021.30 1021.01 1020.70 1020.47 1020.35 1020.36 1020.48 1020.66 1020.86 1021.02 1021.10 1021.09 1021.01 1020.88 1020.74
1007.39 1007.31 1007.40 1007.76 1008.49 1009.61 1011.10 1012.89 1014.82 1016.72 1018.39 1019.68 1020.48 1020.75 1020.54 1019.94 1019.15 1018.34 1017.70 1017.35 1017.37 1017.75 1018.42 1019.28 1020.16 1020.95 1021.53 1021.86 1021.94 1021.81 1021.55 1021.26 1021.02 1020.88 1020.87 1020.97 1021.15 1021.35 1021.52 1021.62 1021.65 1021.59 1021.49 1021.38
1007.23 1007.11 1007.16 1007.48 1008.16 1009.23 1010.68 1012.43 1014.32 1016.19 1017.84 1019.13 1019.94 1020.24 1020.07 1019.52 1018.79 1018.04 1017.46 1017.17 1017.23 1017.66 1018.39 1019.29 1020.23 1021.08 1021.73 1022.13 1022.28 1022.21 1022.01 1021.76 1021.54 1021.41 1021.41 1021.51 1021.69 1021.90 1022.08 1022.21 1022.26 1022.24 1022.16 1022.07
1007.20 1007.12 1007.17 1007.47 1008.08 1009.05 1010.36 1011.95 1013.69 1015.42 1016.97 1018.20 1019.01 1019.37 1019.30 1018.90 1018.33 1017.75 1017.32 1017.15 1017.30 1017.79 1018.53 1019.45 1020.38 1021.23 1021.90 1022.33 1022.53 1022.52 1022.38 1022.19 1022.03 1021.95 1021.97 1022.09 1022.28 1022.50 1022.69 1022.84 1022.91 1022.91 1022.87 1022.80
1007.25 1007.27 1007.38 1007.67 1008.21 1009.03 1010.14 1011.49 1012.98 1014.47 1015.84 1016.97 1017.76 1018.19 1018.27 1018.09 1017.77 1017.44 1017.24 1017.25 1017.53 1018.07 1018.83 1019.71 1020.60 1021.40 1022.04 1022.47 1022.69 1022.74 1022.67 1022.57 1022.48 1022.46 1022.53 1022.68 1022.89 1023.12 1023.33 1023.49 1023.58 1023.60 1023.58 1023.54
1007.37 1007.54 1007.74 1008.04 1008.50 1009.16 1010.02 1011.06 1012.23 1013.42 1014.55 1015.52 1016.27 1016.77 1017.03 1017.11 1017.09 1017.07 1017.14 1017.38 1017.80 1018.42 1019.17 1020.00 1020.82 1021.54 1022.12 1022.53 1022.77 1022.87 1022.88 1022.86 1022.87 1022.93 1023.07 1023.26 1023.50 1023.74 1023.96 1024.12 1024.23 1024.27 1024.27 1024.26
1007.54 1007.88 1008.20 1008.54 1008.93 1009.41 1010.00 1010.71 1011.52 1012.36 1013.21 1013.99 1014.67 1015.22 1015.66 1015.99 1016.29 1016.60 1016.97 1017.44 1018.02 1018.71 1019.47 1020.24 1020.97 1021.61 1022.12 1022.50 1022.75 1022.90 1023.00 1023.08 1023.19 1023.35 1023.56 1023.80 1024.07 1024.32 1024.54 1024.71 1024.83 1024.89 1024.92 1024.93
1007.77 1008.29 1008.74 1009.12 1009.45 1009.77 1010.10 1010.48 1010.91 1011.40 1011.93 1012.50 1013.08 1013.66 1014.23 1014.81 1015.40 1016.01 1016.67 1017.37 1018.12 1018.88 1019.64 1020.36 1021.01 1021.57 1022.02 1022.37 1022.64 1022.85 1023.04 1023.23 1023.45 1023.70 1023.98 1024.28 1024.57 1024.84 1025.06 1025.23 1025.35 1025.43 1025.48 1025.52
1008.05 1008.74 1009.31 1009.74 1010.03 1010.20 1010.30 1010.36 1010.45 1010.59 1010.82 1011.16 1011.62 1012.19 1012.87 1013.63 1014.46 1015.35 1016.25 1017.16 1018.05 1018.89 1019.66 1020.35 1020.94 1021.43 1021.84 1022.18 1022.48 1022.75 1023.03 1023.33 1023.65 1023.99 1024.34 1024.68 1025.00 1025.27 1025.49 1025.66 1025.78 1025.87 1025.94 1026.01
1008.39 1009.20 1009.87 1010.34 1010.59 1010.65 1010.54 1010.35 1010.13 1009.97 1009.93 1010.06 1010.39 1010.93 1011.66 1012.56 1013.58 1014.66 1015.77 1016.84 1017.85 1018.76 1019.55 1020.22 1020.78 1021.24 1021.63 1021.98 1022.32 1022.66 1023.02 1023.41 1023.82 1024.24 1024.64 1025.01 1025.34 1025.61 1025.83 1025.99 1026.11 1026.21 1026.29 1026.38
1008.73 1009.62 1010.34 1010.82 1011.04 1011.00 1010.75 1010.35 1009.91 1009.51 1009.26 1009.22 1009.44 1009.94 1010.69 1011.68 1012.82 1014.05 1015.29 1016.49 1017.59 1018.55 1019.37 1020.04 1020.59 1021.05 1021.45 1021.82 1022.21 1022.61 1023.05 1023.51 1023.99 1024.45 1024.89 1025.27 1025.60 1025.86 1026.07 1026.22 1026.34 1026.44 1026.54 1026.64
1009.01 1009.91 1010.63 1011.10 1011.28 1011.17 1010.82 1010.30 1009.71 1009.17 1008.78 1008.63 1008.77 1009.24 1010.01 1011.04 1012.25 1013.57 1014.90 1016.18 1017.34 1018.35 1019.19 1019.88 1020.44 1020.91 1021.33 1021.75 1022.18 1022.64 1023.13 1023.64 1024.15 1024.64 1025.08 1025.47 1025.78 1026.02 1026.21 1026.35 1026.47 1026.58 1026.69 1026.81
1009.15 1010.00 1010.68 1011.10 1011.24 1011.08 1010.68 1010.10 1009.46 1008.86 1008.43 1008.24 1008.37 1008.83 1009.61 1010.67 1011.92 1013.28 1014.66 1015.97 1017.16 1018.20 1019.06 1019.76 1020.35 1020.85 1021.31 1021.76 1022.24 1022.74 1023.26 1023.80 1024.32 1024.81 1025.23 1025.59 1025.88 1026.10 1026.27 1026.41 1026.53 1026.64 1026.77 1026.91
1009.12 1009.87 1010.45 1010.81 1010.90 1010.72 1010.31 1009.75 1009.12 1008.56 1008.17 1008.02 1008.18 1008.68 1009.49 1010.57 1011.83 1013.20 1014.58 1015.89 1017.08 1018.12 1018.99 1019.71 1020.32 1020.85 1021.35 1021.84 1022.35 1022.88 1023.42 1023.96 1024.47 1024.94 1025.33 1025.66 1025.91 1026.11 1026.26 1026.39 1026.52 1026.66 1026.81 1026.97
1008.90 1009.53 1010.01 1010.28 1010.33 1010.14 1009.76 1009.27 1008.74 1008.28 1007.99 1007.95 1008.20 1008.76 1009.61 1010.70 1011.96 1013.31 1014.65 1015.93 1017.09 1018.10 1018.96 1019.69 1020.32 1020.88 1021.41 1021.94 1022.48 1023.03 1023.57 1024.10 1024.59 1025.02 1025.37 1025.66 1025.88 1026.05 1026.19 1026.32 1026.46 1026.62 1026.81 1027.01
1008.59 1009.08 1009.45 1009.64 1009.64 1009.47 1009.15 1008.76 1008.37 1008.07 1007.94 1008.04 1008.41 1009.05 1009.94 1011.04 1012.28 1013.57 1014.85 1016.06 1017.15 1018.12 1018.95 1019.67 1020.30 1020.89 1021.45 1022.01 1022.57 1023.13 1023.67 1024.19 1024.64 1025.03 1025.35 1025.60 1025.78 1025.93 1026.06 1026.20 1026.36 1026.55 1026.77 1027.02
1008.29 1008.67 1008.93 1009.05 1009.02 1008.87 1008.63 1008.36 1008.13 1008.01 1008.05 1008.31 1008.81 1009.53 1010.46 1011.55 1012.73 1013.94 1015.13 1016.23 1017.24 1018.13 1018.91 1019.60 1020.23 1020.83 1021.41 1022.00 1022.58 1023.16 1023.70 1024.20 1024.63 1024.99 1025.27 1025.48 1025.64 1025.77 1025.89 1026.03 1026.21 1026.43 1026.69 1026.98
1008.17 1008.45 1008.62 1008.68 1008.64 1008.52 1008.36 1008.21 1008.13 1008.18 1008.39 1008.80 1009.40 1010.19 1011.13 1012.19 1013.29 1014.39 1015.45 1016.43 1017.32 1018.11 1018.82 1019.47 1020.09 1020.69 1021.29 1021.90 1022.51 1023.10 1023.65 1024.14 1024.56 1024.89 1025.15 1025.33 1025.46 1025.57 1025.68 1025.82 1026.01 1026.25 1026.54 1026.86
1008.33 1008.55 1008.66 1008.67 1008.62 1008.52 1008.43 1008.39 1008.44 1008.63 1008.97 1009.49 1010.17 1010.99 1011.92 1012.90 1013.90 1014.87 1015.79 1016.62 1017.38 1018.06 1018.69 1019.29 1019.87 1020.47 1021.09 1021.72 1022.35 1022.96 1023.52 1024.02 1024.43 1024.75 1024.98 1025.14 1025.25 1025.34 1025.44 1025.57 1025.75 1025.99 1026.29 1026.64
Thickness
5842 5833 5829 5837 5845 5847 5847 5842 5837 5843 5859 5850 5838 5831 5835 5841 5840 5833 5830 5827 5823 5821 5825 5824 5821 5818 5814 5809 5805 5801 5798 5795 5793 5789 5785 5782 5781 5781 5781 5779 5777 5774 5772 5770
5827 5823 5842 5851 5854 5850 5845 5835 5835 5847 5859 5849 5838 5834 5840 5841 5840 5840 5835 5830 5827 5825 5824 5823 5821 5818 5814 5809 5805 5802 5798 5796 5793 5791 5788 5786 5784 5782 5782 5781 5778 5776 5773 5771
5821 5836 5849 5844 5842 5837 5838 5835 5838 5840 5847 5848 5836 5822 5830 5838 5845 5846 5843 5839 5835 5830 5825 5822 5820 5818 5816 5811 5807 5804 5800 5797 5794 5792 5789 5787 5784 5782 5780 5779 5778 5777 5774 5772
5826 5841 5841 5836 5833 5837 5827 5848 5847 5844 5832 5821 5827 5795 5815 5831 5832 5838 5841 5840 5838 5836 5832 5827 5823 5819 5817 5814 5811 5807 5802 5798 5795 5793 5789 5784 5779 5776 5778 5778 5778 5777 5776 5773
5822 5834 5831 5826 5834 5840 5837 5854 5850 5844 5833 5821 5824 5806 5810 5827 5821 5832 5841 5843 5843 5841 5837 5831 5828 5824 5821 5819 5814 5809 5803 5799 5796 5793 5790 5785 5782 5780 5780 5780 5778 5776 5775 5773
5830 5844 5841 5838 5845 5848 5846 5843 5839 5837 5826 5800 5813 5805 5803 5819 5821 5834 5844 5846 5845 5844 5841 5837 5833 5829 5824 5822 5818 5812 5804 5800 5797 5794 5790 5786 5782 5780 5778 5777 5775 5774 5773 5772
5809 5826 5840 5845 5832 5837 5835 5816 5795 5789 5786 5791 5820 5811 5810 5832 5840 5843 5845 5845 5847 5846 5843 5838 5833 5828 5824 5821 5818 5813 5806 5800 5798 5794 5790 5788 5784 5781 5778 5777 5775 5773 5771 5770
5790 5797 5825 5834 5828 5823 5825 5817 5790 5771 5774 5791 5811 5806 5820 5845 5851 5851 5849 5848 5847 5845 5843 5840 5836 5831 5827 5823 5819 5815 5808 5802 5798 5794 5791 5789 5786 5783 5780 5778 5777 5774 5772 5772
5800 5801 5832 5837 5840 5834 5818 5816 5824 5803 5794 5787 5799 5810 5822 5841 5842 5842 5842 5840 5841 5841 5841 5839 5837 5833 5829 5824 5821 5817 5810 5804 5800 5796 5793 5789 5786 5783 5781 5779 5777 5775 5774 5773
5811 5801 5821 5832 5834 5834 5834 5825 5813 5795 5771 5765 5782 5796 5801 5814 5826 5831 5833 5834 5837 5839 5839 5838 5837 5834 5830 5826 5823 5819 5813 5806 5802 5798 5793 5790 5787 5784 5781 5779 5776 5774 5774 5772
5814 5798 5806 5816 5808 5810 5817 5816 5815 5806 5795 5773 5764 5783 5820 5821 5827 5827 5831 5835 5835 5836 5836 5835 5835 5834 5831 5828 5823 5818 5812 5806 5802 5798 5794 5791 5787 5784 5781 5777 5776 5774 5772 5770
5808 5802 5792 5805 5825 5832 5824 5820 5815 5793 5785 5792 5783 5782 5819 5825 5831 5830 5831 5833 5834 5835 5836 5835 5833 5831 5828 5825 5821 5817 5812 5807 5802 5798 5794 5789 5786 5783 5779 5776 5774 5772 5769 5767
5799 5789 5773 5779 5798 5813 5813 5819 5821 5815 5803 5793 5781 5783 5823 5822 5825 5828 5828 5828 5828 5828 5829 5828 5826 5824 5823 5821 5818 5814 5811 5806 5802 5797 5791 5787 5783 5780 5776 5773 5771 5769 5766 5763
5796 5782 5774 5769 5785 5801 5801 5809 5817 5810 5794 5789 5789 5789 5803 5810 5811 5816 5820 5821 5822 5821 5820 5817 5815 5817 5816 5815 5813 5810 5807 5804 5799 5794 5788 5783 5779 5776 5773 5770 5768 5765 5762 5759
5787 5773 5779 5788 5802 5807 5802 5805 5811 5806 5805 5795 5796 5795 5800 5806 5809 5812 5815 5815 5814 5812 5812 5811 5809 5809 5809 5808 5807 5805 5802 5799 5795 5789 5783 5779 5775 5772 5769 5766 5763 5761 5758 5756
5777 5766 5772 5775 5789 5793 5795 5803 5809 5809 5810 5806 5801 5798 5811 5812 5811 5808 5809 5810 5806 5806 5806 5806 5805 5804 5802 5802 5801 5800 5797 5793 5790 5784 5778 5775 5771 5767 5764 5761 5758 5756 5753 5751
5765 5758 5754 5756 5774 5778 5774 5796 5804 5806 5811 5808 5795 5799 5808 5804 5801 5802 5803 5803 5802 5801 5801 5800 5799 5798 5797 5797 5796 5793 5791 5788 5783 5777 5773 5769 5765 5762 5759 5756 5753 5750 5748 5746
5755 5752 5754 5751 5754 5739 5778 5811 5812 5807 5807 5809 5805 5804 5806 5801 5801 5803 5803 5800 5798 5798 5797 5796 5795 5794 5793 5793 5791 5789 5786 5781 5776 5771 5767 5764 5761 5757 5754 5751 5747 5745 5743 5740
5762 5750 5747 5746 5739 5748 5778 5799 5805 5796 5791 5807 5803 5799 5801 5801 5795 5789 5795 5795 5793 5794 5794 5793 5793 5791 5788 5786 5784 5781 5777 5773 5769 5765 5762 5760 5757 5752 5748 5744 5741 5740 5738 5735
5756 5753 5742 5740 5731 5733 5761 5793 5807 5794 5773 5799 5801 5793 5793 5792 5773 5769 5785 5788 5789 5790 5788 5787 5787 5784 5780 5778 5777 5773 5769 5765 5761 5760 5758 5755 5752 5748 5743 5740 5737 5736 5733 5729
5732 5734 5732 5732 5731 5740 5765 5786 5790 5759 5761 5790 5793 5789 5785 5779 5775 5776 5782 5782 5782 5781 5780 5779 5777 5773 5770 5770 5768 5764 5760 5756 5755 5754 5751 5748 5746 5743 5739 5736 5733 5730 5728 5724
5727 5727 5727 5730 5724 5726 5761 5769 5760 5760 5780 5785 5783 5782 5778 5775 5774 5774 5773 5771 5770 5770 5770 5769 5766 5763 5762 5761 5758 5755 5751 5750 5749 5746 5743 5740 5738 5737 5734 5730 5726 5725 5722 5718
5730 5733 5734 5729 5727 5741 5751 5754 5761 5769 5770 5773 5774 5775 5772 5767 5765 5764 5762 5760 5759 5760 5759 5758 5756 5753 5753 5752 5750 5746 5744 5744 5741 5737 5734 5731 5730 5727 5725 5722 5718 5716 5714 5712
5724 5735 5730 5723 5727 5736 5741 5748 5754 5761 5763 5766 5767 5766 5764 5758 5756 5753 5752 5750 5750 5748 5747 5747 5745 5743 5741 5742 5741 5739 5738 5737 5733 5729 5725 5723 5720 5717 5714 5712 5710 5706 5704 5703
5709 5718 5718 5712 5719 5728 5732 5738 5744 5750 5754 5756 5757 5756 5753 5750 5746 5745 5742 5741 5741 5740 5739 5737 5735 5733 5732 5732 5731 5730 5729 5728 5724 5721 5718 5715 5712 5708 5702 5698 5694 5693 5689 5688
5705 5706 5703 5701 5712 5718 5720 5731 5738 5738 5739 5741 5742 5742 5743 5741 5738 5737 5735 5733 5732 5731 5730 5727 5725 5724 5723 5723 5721 5720 5720 5718 5715 5712 5710 5708 5705 5700 5696 5690 5683 5678 5678 5677